Regional Weather Roundup
Issued by NWS Charleston, SC

Current Version | Previous Version | Graphics & Text | Print | Product List | Glossary On
Versions: 1 2 3 4 5 6 7 8 9 10 11 12 13 14 15 16 17 18 19 20 21 22 23 24 25 26 27 28 29 30 31 32 33 34 35 36 37 38 39 40 41 42 43 44 45 46 47 48 49 50
000
ASUS42 KCHS 210527
RWRCHS

REGIONAL WEATHER ROUNDUP
NATIONAL WEATHER SERVICE CHARLESTON SC
100 AM EDT MON AUG 21 2017

NOTE: "FAIR" INDICATES FEW OR NO CLOUDS BELOW 12,000 FEET WITH NO
SIGNIFICANT WEATHER AND/OR OBSTRUCTIONS TO VISIBILITY.

NOT ALL STATIONS ARE QUALITY CONTROLLED. USE DATA WITH CAUTION...
ESPECIALLY DEWPOINT OBSERVATIONS.

SCZ027-030-031-034>040-042>050-210600-
...SOUTHEAST SOUTH CAROLINA...

CITY           SKY/WX    TMP DP  RH WIND       PRES   REMARKS
N CHARLESTON   MOCLDY    81  78  91 CALM      30.13S
WATERFRONT PRK   N/A     84  79  85 VRB2      29.98S HX  96
JOHNS ISLAND   FAIR      81  79  94 CALM      30.13F
PINOPOLIS        N/A     81  79  94 CALM      30.07S
MONCKS CORNER  FAIR      75  75 100 CALM      30.13F FOG
SUMMERVILLE    FAIR      77  77 100 CALM      30.14F
BEAUFORT MCAS  PTCLDY    84  81  90 CALM      30.13S HX  99
BEAUFORT ARPT  FAIR      81  77  89 CALM      30.13S
HILTON HEAD IS CLOUDY    84  79  84 CALM      30.14R HX  96
WALTERBORO     CLOUDY    77  75  94 CALM      30.15S
ALLENDALE      NOT AVBL

...SOUTHERN MIDLANDS AND PEE DEE...

CITY           SKY/WX    TMP DP  RH WIND       PRES   REMARKS
GEORGETOWN     FAIR      77  77 100 CALM      30.15S
KINGSTREE      FAIR      73  73 100 CALM      30.15S
ORANGEBURG     PTCLDY    78  74  87 CALM      30.15S
BARNWELL       FAIR      79  77  94 CALM      30.15S
AIKEN          FAIR      75  72  88 SE3       30.18F
MANNING        FAIR      77  73  88 MISG      30.15S
COLUMBIA       PTCLDY    82  74  76 CALM      30.14R
SUMTER         PTCLDY    80  74  81 CALM      30.13S
FLORENCE       PTCLDY    78  76  93 CALM      30.15S
MYRTLE BEACH   NOT AVBL
N MYRTLE BEACH MOCLDY    83  78  85 S5        30.14S HX  93

$$

GAZ063-065-086>088-099>101-113>116-118-119-134>141-150-210600-
...SOUTHEAST GEORGIA...

CITY           SKY/WX    TMP DP  RH WIND       PRES   REMARKS
SAVANNAH ARPT  MOCLDY    82  77  84 SE3       30.13S HX  90
HUNTER AAF     MOCLDY    82  77  84 SE3       30.10S HX  90
FORT STEWART   MOCLDY    77  74  92 CALM      30.11R
STATESBORO     MOCLDY    79  77  95 CALM      30.13S
SYLVANIA         N/A     78  78 100 CALM      30.15R
CLAXTON        FAIR      77  76  97 CALM      30.13S

...CSRA...CENTRAL AND FAR SOUTHEAST GEORGIA...

CITY           SKY/WX    TMP DP  RH WIND       PRES   REMARKS
THOMSON        PTCLDY    78  74  86 SW3       30.19S
AUGUSTA-BUSH   LGT RAIN  79  76  90 CALM      30.13S
AUGUSTA-DANIEL CLEAR     81  74  79 SE5       30.15S
SWAINSBORO     FAIR      79  75  89 S3        30.15S
VIDALIA        CLOUDY    79  73  83 CALM      30.14S
EASTMAN        FAIR      79  64  58 SE3       30.16R
HAZLEHURST     FAIR      78  67  68 CALM      30.13R
ALMA           CLOUDY    75  72  90 CALM      30.13S
WAYCROSS       PTCLDY    75  72  91 CALM      30.13S
JESUP          FAIR      75  72  88 CALM      30.13S
BAXLEY         FAIR      73  73 100 CALM      30.13S
BRUNSWICK      MOCLDY    79  75  89 CALM      30.13S
SAINT SIMONS   MOCLDY    85  78  80 S8        30.12R HX  96

$$

SCZ027-028-034-036>038-045-046-048>050-GAZ119-141-210600-
...LAKE AND SUPPLEMENTAL COASTAL OBSERVATIONS...

STATION/POSITION TIME  TEMP    WIND        PRES    WAVE   SWELL
                       AIR SEA DIR/SP/G            HT/PER HT/PER/DIR
                 (UTC) (F)     (DEG/KT/KT) (MB)    (FT/S) (FT/S/D)
WINYAH BAY       0445   81        CALM     1021.0S
LAKE MURRAY      0520   83     180/  6/  8 1019.6
ACE BASIN NERRS  0445   81        CALM     1020.0S
FORT PULASKI     0500   83 87  160/  2/  3 1020.6
SAPELO ISLAND    0500   83     180/  6     1020.0

$$

ANZ835-935-AMZ111-154-330-350-352-354-370-450-454-472-210600-
...C-MAN AND BUOY OBSERVATIONS...

STATION/POSITION TIME  TEMP    WIND        PRES    WAVE   SWELL
                       AIR SEA DIR/SP/G            HT/PER HT/PER/DIR
                 (UTC) (F)     (DEG/KT/KT) (MB)    (FT/S) (FT/S/D)
BUOY 41004       0510   84 85  170/  4/  6 1020.0
BUOY 41008       0450   84 85  160/ 12/ 14 1019.8R   2/ 9   2/110/ 9
FOLLY BEACH CMAN 0500   85     200/  6/  8 1021.0S
CAPERS NEARSHORE 0508   83 86  190/  6/ 10 1020.4R
FRIPP NEARSHORE  0508   85     180/  8/ 12 1020.0S


STATION/POSITION TIME  TEMP    WIND        PRES    WAVE   SWELL
                       AIR SEA DIR/SP/G            HT/PER HT/PER/DIR
                 (UTC) (F)     (DEG/KT/KT) (MB)    (FT/S) (FT/S/D)
5E ST. MARYS GA  0500      84                N/A     2/ 8
FRYING PAN BUOY  0510   85 84  180/  8/  8 1020.5
BUOY 41025       0450   83 85   CALM  /  2 1021.4R   2/ 8   2/110/ 8
CAPE LOOKOUT NC  0500   81      60/  4/  4 1020.9R
BUOY 41002       0450   81 85   90/  4/  6 1021.3F   3/ 7   3/110/ 7
BUOY 41010       0510   81 86  100/  6/  8 1019.7
ST AUGUSTINE FL  0500   80 83  250/  3/  4 1020.2S


$$



USA.gov is the U.S. government's official web portal to all federal, state and local government web resources and services.